Regional Weather Roundup
Issued by NWS Sioux Falls, SD

Home | Current Version | Previous Version | Graphics & Text | Print | Product List | Glossary Off
Versions: 1 2 3 4 5 6 7 8 9 10 11 12 13 14 15 16 17 18 19 20 21 22 23 24 25 26 27 28 29 30 31 32 33 34 35 36 37 38 39 40 41 42 43 44 45 46 47 48 49 50

000
ASUS43 KFSD 290910
RWRFSD

WEATHER ROUNDUP FOR SE SOUTH DAKOTA/SW MINNESOTA/NW IOWA
NATIONAL WEATHER SERVICE SIOUX FALLS SD
400 AM CDT FRI AUG 29 2014

NOTE: "FAIR" INDICATES FEW OR NO CLOUDS BELOW 12,000 FEET WITH NO
SIGNIFICANT WEATHER AND OR OBSTRUCTIONS TO VISIBILITY.


SDZ038>040-050-052>070-291000-
SOUTHEAST SOUTH DAKOTA

CITY           SKY/WX    TMP DP  RH WIND       PRES   REMARKS
CHAMBERLAIN    CLOUDY    67  66  99 W3        29.79F
HURON          CLOUDY    69  67  93 E3        29.77S FOG
MADISON        CLOUDY    68  68 100 SW3       29.78F FOG
MITCHELL       FOG       69  69 100 W5        29.77R VSB 3/4
SIOUX FALLS    CLOUDY    72  70  93 SW5       29.78R
WINNER         CLOUDY    65  64  97 W5        29.83S
YANKTON        CLOUDY    66  66 100 SW6       29.77F
$$

MNZ071-072-080-081-089-090-097-098-291000-
SOUTHWEST MINNESOTA

CITY           SKY/WX    TMP DP  RH WIND       PRES   REMARKS
FAIRMONT       CLOUDY    66  64  94 S14       29.82F
JACKSON        CLOUDY    70  64  83 S10       29.83S
LUVERNE        CLOUDY    72  70  94 S12       29.78R FOG
MARSHALL       CLOUDY    66  64  94 SE6       29.75F VSB 1/2
MONTEVIDEO     FOG       64  64 100 CALM      29.79S VSB 1/2
PIPESTONE      CLOUDY    72  70  94 S8        29.79R FOG
REDWOOD FALLS  CLOUDY    68  67  96 SE10      29.77F FOG
TRACY          MOCLDY    71  70  98 S7        29.77F FOG
WINDOM         CLOUDY    72  70  94 S10       29.80F
WORTHINGTON    MOCLDY    72  70  94 S13       29.80F
$$

IAZ001>003-012>014-020>022-031-032-NEZ013-014-SDZ071-291000-
NORTHWEST IOWA

CITY           SKY/WX    TMP DP  RH WIND       PRES   REMARKS
DENISON        CLOUDY    70  68  94 S10G18    29.81S
ESTHERVILLE    CLOUDY    67  66  97 S12       29.83S
LE MARS          N/A     70  70 100 S7G14     29.79R
ORANGE CITY    MOCLDY    72  68  88 S6        29.78F
SHELDON        MOCLDY    70  70 100 SE12      29.77F
SIOUX CITY     MOCLDY    72  69  90 S7        29.78F
SPENCER        PTCLDY    68  65  90 SE10      29.81F
STORM LAKE     MOCLDY    66  66 100 SE7       29.83S
$$

ABBREVIATIONS USED IN REMARKS
   TC - TEMPERATURE IN CELSIUS
  WCI - WIND CHILL INDEX
   HX - HEAT INDEX
  VSB - VISIBILITY




USA.gov is the U.S. government's official web portal to all federal, state and local government web resources and services.